FENGYUN 1C DEB, 29846

Orbit data source: Space-Track

FENGYUN 1C DEB, 29846 is space debris in SSO originally from a launch on Mon, 10 May 1999 UTC launched from the Taiyaun Space Center, China (TSC). Fengyun 1C debris stems from the Chinese weather satellite Fengyun-1C, which was intentionally destroyed by a Chinese anti-satellite missile in 2007. This event dramatically increased the amount of space debris, with thousands of trackable fragments posing hazards to satellites and human spaceflight. The Fengyun 1C debris cloud has become a focal point in discussions about space sustainability and the need for international regulations to prevent the creation of new debris.

Loading next visibility...
Identifier
29846, 1999-025EQ
Orbit
SSO
Country
Flag of CNCN / PRC
Related business
Manufacturer
Unknown
Mission
Spacecraft
Bus & Motor
Unknown
Mass
Unknown
Launch date (UTC)
1999-05-10 (27 years ago)
Launch vehicle
Unknown
Launch site
Taiyaun Space Center, China (TSC)
Object type
Payload
Rocket body
Debris
Shape & HBR
Unknown shape, 0.1 m
Radar Cross Section
Small (<0.1 m²)

Expand to show TLE details & history
Last TLE update: 14 hours ago

TLE from 14 hours ago
0 FENGYUN 1C DEB
1 29846U 99025EQ  25347.63903972  .00000371  00000-0  19148-3 0  9991
2 29846  98.6552  29.4373 0083869 301.6863 180.1053 14.19092852978727
Epoch: 2025-12-13T15:20Z
TLE epoch observation values (Epoch: 2025-12-13T15:20:13.031Z)
Latitude
57.27065°
Longitude
-89.55331°
Altitude
898.455 km
Speed
7.377 km/s
True Right ascension
14h 52m 15s
True Declination
57° 07' 01"
Sunlit
Object was in daylight at epoch
Visualization orbit readout
Latitude
Unknown
Longitude
Unknown
Altitude
Unknown
Speed
Unknown
Apparent Right ascension
Unknown
Apparent Declination
Unknown
Sunlit
N/A
Visualization observer readout
Local Sidereal Time
03:38:45
Azimuth
Unknown
Elevation
Unknown
Doppler factor
Unknown
Orbital elements
Apogee altitude
885.996 km
Perigee altitude
765.162 km
Semi-major axis
7,203.716 km
Eccentricity
0.00839
Inclination
98.6552°
RAAN
29.4373°
Arg. of periapsis
301.6863°
True anomaly
180.10355°
Mean anomaly
180.1053°
Eccentric anomaly
180.10442°
Mean motion
3.54984 °/min
Orbital period
101.41 mins
BSTAR
0.00019148
Loading maneuver chart data...
Computing Atmospheric mass density...

Documentation

Showing up to 5 results
|